| time (UTC) | temp C | wind direction | speed KPH | gust KPH | rain 1hr cm | rain 24hr cm | rain mn cm | humidity % | barometer mb |
| 20260502183437 | 8 | 303 | 3.2 | 6.4 | 0.00 | 0.00 | 0.00 | 47 | 1018.0 |
| 20260502182932 | 8 | 61 | 0.0 | 0.0 | 0.00 | 0.00 | 0.00 | 49 | 1017.8 |
| 20260502182428 | 8 | 159 | 3.2 | 4.8 | 0.00 | 0.00 | 0.00 | 48 | 1017.9 |
| 20260502181924 | 9 | 22 | 3.2 | 3.2 | 0.00 | 0.00 | 0.00 | 51 | 1018.3 |
| 20260502181423 | 10 | 95 | 8.0 | 9.7 | 0.00 | 0.00 | 0.00 | 44 | 1018.0 |
| 20260502180921 | 10 | 90 | 1.6 | 1.6 | 0.00 | 0.00 | 0.00 | 44 | 1017.9 |
| 20260502180418 | 9 | 321 | 4.8 | 4.8 | 0.00 | 0.00 | 0.00 | 45 | 1017.7 |
| 20260502170336 | 9 | 271 | 6.4 | 6.4 | 0.00 | 0.00 | 0.00 | 47 | 1018.2 |
| 20260502164324 | 10 | 112 | 3.2 | 4.8 | 0.00 | 0.00 | 0.00 | 47 | 1018.4 |
| 20260502163820 | 10 | 315 | 6.4 | 6.4 | 0.00 | 0.00 | 0.00 | 50 | 1018.5 |
| 20260502163316 | 10 | 357 | 4.8 | 4.8 | 0.00 | 0.00 | 0.00 | 46 | 1018.5 |
| 20260502162814 | 8 | 240 | 6.4 | 6.4 | 0.00 | 0.00 | 0.00 | 47 | 1018.5 |
| 20260502162310 | 8 | 284 | 8.0 | 9.7 | 0.00 | 0.00 | 0.00 | 52 | 1018.7 |
| 20260502161808 | 8 | 276 | 8.0 | 9.7 | 0.00 | 0.00 | 0.00 | 52 | 1018.7 |
| 20260502161303 | 8 | 289 | 8.0 | 11.3 | 0.00 | 0.00 | 0.00 | 54 | 1018.8 |
| 20260502160801 | 8 | 347 | 8.0 | 9.7 | 0.00 | 0.00 | 0.00 | 50 | 1018.6 |
| 20260502160300 | 8 | 281 | 3.2 | 3.2 | 0.00 | 0.00 | 0.00 | 52 | 1018.7 |
| 20260502152235 | 10 | 82 | 4.8 | 6.4 | 0.00 | 0.00 | 0.00 | 53 | 1018.7 |
| 20260502151732 | 10 | 63 | 3.2 | 4.8 | 0.00 | 0.00 | 0.00 | 50 | 1018.8 |
| 20260502151229 | 10 | 47 | 1.6 | 3.2 | 0.00 | 0.00 | 0.00 | 48 | 1019.0 |
| 20260502150727 | 9 | 257 | 3.2 | 3.2 | 0.00 | 0.00 | 0.00 | 48 | 1018.9 |
| 20260502150224 | 9 | 10 | 3.2 | 4.8 | 0.00 | 0.00 | 0.00 | 55 | 1018.6 |
| 20260502130612 | 6 | 295 | 3.2 | 3.2 | 0.00 | 0.00 | 0.00 | 71 | 1018.7 |
| 20260502130110 | 6 | 36 | 1.6 | 1.6 | 0.00 | 0.00 | 0.00 | 73 | 1018.8 |
| 20260502123555 | 5 | 36 | 1.6 | 1.6 | 0.00 | 0.00 | 0.00 | 77 | 1018.4 |
| 20260502123052 | 6 | 68 | 0.0 | 0.0 | 0.00 | 0.00 | 0.00 | 78 | 1018.6 |
| 20260502122548 | 5 | 63 | 1.6 | 1.6 | 0.00 | 0.00 | 0.00 | 79 | 1018.7 |
| 20260502122045 | 5 | 68 | 1.6 | 1.6 | 0.00 | 0.00 | 0.00 | 80 | 1018.6 |
| 20260502121543 | 5 | 12 | 1.6 | 3.2 | 0.00 | 0.00 | 0.00 | 80 | 1018.4 |
| 20260502121040 | 5 | 88 | 0.0 | 0.0 | 0.00 | 0.00 | 0.00 | 84 | 1018.4 |
| 20260502120536 | 4 | 88 | 0.0 | 0.0 | 0.00 | 0.00 | 0.00 | 86 | 1018.4 |
| 20260502115531 | 3 | 88 | 0.0 | 0.0 | 0.00 | 0.00 | 0.00 | 89 | 1018.4 |
| 20260502115027 | 3 | 88 | 0.0 | 0.0 | 0.00 | 0.00 | 0.00 | 92 | 1018.7 |
| 20260502114524 | 3 | 88 | 0.0 | 0.0 | 0.00 | 0.00 | 0.00 | 95 | 1018.7 |
| 20260502114021 | 3 | 88 | 0.0 | 0.0 | 0.00 | 0.00 | 0.00 | 95 | 1018.8 |
| 20260502113518 | 3 | 88 | 0.0 | 0.0 | 0.00 | 0.00 | 0.00 | 96 | 1018.6 |
| 20260502113017 | 2 | 88 | 0.0 | 0.0 | 0.00 | 0.00 | 0.00 | 96 | 1018.2 |
| 20260502112514 | 2 | 88 | 0.0 | 0.0 | 0.00 | 0.00 | 0.00 | 96 | 1018.4 |
| 20260502112011 | 2 | 88 | 0.0 | 0.0 | 0.00 | 0.00 | 0.00 | 95 | 1018.3 |
| 20260502111509 | 2 | 88 | 0.0 | 0.0 | 0.00 | 0.00 | 0.00 | 95 | 1018.2 |
| 20260502111006 | 2 | 88 | 0.0 | 0.0 | 0.00 | 0.00 | 0.00 | 95 | 1018.0 |
| 20260502110503 | 2 | 88 | 0.0 | 0.0 | 0.00 | 0.00 | 0.00 | 95 | 1018.3 |
| 20260502110001 | 2 | 88 | 0.0 | 0.0 | 0.00 | 0.00 | 0.00 | 95 | 1018.2 |
| 20260502105458 | 1 | 88 | 0.0 | 0.0 | 0.00 | 0.00 | 0.00 | 95 | 1018.2 |
| 20260502104955 | 1 | 88 | 0.0 | 0.0 | 0.00 | 0.00 | 0.00 | 95 | 1018.3 |
| 20260502104453 | 1 | 88 | 0.0 | 0.0 | 0.00 | 0.00 | 0.00 | 95 | 1018.0 |
| 20260502103950 | 1 | 88 | 0.0 | 0.0 | 0.00 | 0.00 | 0.00 | 95 | 1018.3 |
| 20260502103447 | 1 | 88 | 0.0 | 0.0 | 0.00 | 0.00 | 0.00 | 95 | 1018.3 |
| 20260502102944 | 1 | 88 | 0.0 | 0.0 | 0.00 | 0.00 | 0.00 | 95 | 1018.4 |
| 20260502102441 | 1 | 88 | 0.0 | 0.0 | 0.00 | 0.00 | 0.00 | 95 | 1018.4 |
| 20260502101938 | 1 | 88 | 0.0 | 0.0 | 0.00 | 0.00 | 0.00 | 95 | 1018.5 |
| 20260502101436 | 1 | 88 | 0.0 | 0.0 | 0.00 | 0.00 | 0.00 | 94 | 1018.2 |
| 20260502100934 | 1 | 88 | 0.0 | 0.0 | 0.00 | 0.00 | 0.00 | 94 | 1018.3 |
| 20260502100433 | 1 | 88 | 0.0 | 0.0 | 0.00 | 0.00 | 0.00 | 94 | 1018.4 |
| 20260502091408 | 2 | 88 | 0.0 | 0.0 | 0.00 | 0.00 | 0.00 | 93 | 1018.6 |
| 20260502090905 | 1 | 88 | 0.0 | 0.0 | 0.00 | 0.00 | 0.00 | 92 | 1018.6 |
| 20260502090401 | 1 | 88 | 0.0 | 0.0 | 0.00 | 0.00 | 0.00 | 92 | 1018.8 |
| 20260502071256 | 3 | 88 | 0.0 | 0.0 | 0.00 | 0.00 | 0.00 | 84 | 1018.5 |
| 20260502070755 | 3 | 88 | 0.0 | 0.0 | 0.00 | 0.00 | 0.00 | 82 | 1018.4 |
| 20260502070252 | 3 | 88 | 0.0 | 0.0 | 0.00 | 0.00 | 0.00 | 82 | 1018.5 |
| 20260502065750 | 3 | 88 | 0.0 | 0.0 | 0.00 | 0.00 | 0.00 | 83 | 1018.5 |
| 20260502065248 | 3 | 88 | 0.0 | 0.0 | 0.00 | 0.00 | 0.00 | 82 | 1018.5 |
| 20260502064746 | 3 | 88 | 0.0 | 0.0 | 0.00 | 0.00 | 0.00 | 81 | 1018.6 |
| 20260502064244 | 3 | 88 | 0.0 | 0.0 | 0.00 | 0.00 | 0.00 | 80 | 1018.5 |
| 20260502063741 | 3 | 88 | 0.0 | 0.0 | 0.00 | 0.00 | 0.00 | 78 | 1018.5 |
| 20260502063239 | 3 | 88 | 0.0 | 0.0 | 0.00 | 0.00 | 0.00 | 78 | 1018.6 |
| 20260502062735 | 3 | 94 | 0.0 | 0.0 | 0.00 | 0.00 | 0.00 | 79 | 1018.6 |
| 20260502062233 | 3 | 89 | 0.0 | 0.0 | 0.00 | 0.00 | 0.00 | 79 | 1018.7 |
| 20260502061732 | 3 | 97 | 0.0 | 0.0 | 0.00 | 0.00 | 0.00 | 79 | 1018.9 |
| 20260502061229 | 3 | 97 | 0.0 | 0.0 | 0.00 | 0.00 | 0.00 | 79 | 1018.8 |
| 20260502060724 | 4 | 97 | 0.0 | 0.0 | 0.00 | 0.00 | 0.00 | 79 | 1018.6 |
| 20260502060220 | 4 | 97 | 0.0 | 0.0 | 0.00 | 0.00 | 0.00 | 79 | 1018.6 |
| 20260502055718 | 4 | 97 | 0.0 | 0.0 | 0.00 | 0.00 | 0.00 | 77 | 1018.6 |
| 20260502055216 | 5 | 102 | 0.0 | 0.0 | 0.00 | 0.00 | 0.00 | 75 | 1018.7 |
| 20260502054715 | 5 | 109 | 0.0 | 0.0 | 0.00 | 0.00 | 0.00 | 73 | 1018.8 |
| 20260502054212 | 5 | 109 | 0.0 | 0.0 | 0.00 | 0.00 | 0.00 | 74 | 1018.8 |
| 20260502053709 | 5 | 110 | 0.0 | 0.0 | 0.00 | 0.00 | 0.00 | 74 | 1018.6 |
| 20260502053206 | 5 | 110 | 0.0 | 0.0 | 0.00 | 0.00 | 0.00 | 74 | 1018.9 |
| 20260502052704 | 5 | 110 | 0.0 | 0.0 | 0.00 | 0.00 | 0.00 | 74 | 1018.6 |
| 20260502052202 | 5 | 51 | 0.0 | 0.0 | 0.00 | 0.00 | 0.00 | 73 | 1018.7 |
| 20260502051700 | 5 | 50 | 0.0 | 0.0 | 0.00 | 0.00 | 0.00 | 73 | 1018.8 |
| 20260502051158 | 6 | 50 | 0.0 | 0.0 | 0.00 | 0.00 | 0.00 | 71 | 1018.7 |
| 20260502050654 | 6 | 49 | 0.0 | 0.0 | 0.00 | 0.00 | 0.00 | 70 | 1018.8 |
| 20260502050150 | 6 | 64 | 0.0 | 0.0 | 0.00 | 0.00 | 0.00 | 70 | 1018.8 |
| 20260502045647 | 6 | 57 | 0.0 | 0.0 | 0.00 | 0.00 | 0.00 | 69 | 1018.8 |
| 20260502045145 | 6 | 68 | 0.0 | 0.0 | 0.00 | 0.00 | 0.00 | 68 | 1019.0 |
| 20260502044641 | 6 | 42 | 0.0 | 0.0 | 0.00 | 0.00 | 0.00 | 68 | 1018.9 |
| 20260502044137 | 7 | 54 | 0.0 | 0.0 | 0.00 | 0.00 | 0.00 | 68 | 1019.0 |
| 20260502043636 | 7 | 46 | 0.0 | 1.6 | 0.00 | 0.00 | 0.00 | 67 | 1019.1 |
| 20260502043133 | 7 | 93 | 1.6 | 3.2 | 0.00 | 0.00 | 0.00 | 68 | 1018.9 |
| 20260502042632 | 7 | 275 | 4.8 | 4.8 | 0.00 | 0.00 | 0.00 | 67 | 1019.1 |
| 20260502042130 | 7 | 14 | 1.6 | 1.6 | 0.00 | 0.00 | 0.00 | 67 | 1019.1 |
| 20260502041627 | 7 | 8 | 3.2 | 3.2 | 0.00 | 0.00 | 0.00 | 67 | 1019.1 |
| 20260502041124 | 7 | 97 | 3.2 | 6.4 | 0.00 | 0.00 | 0.00 | 69 | 1018.9 |
| 20260502040621 | 7 | 99 | 0.0 | 0.0 | 0.00 | 0.00 | 0.00 | 71 | 1019.1 |
| 20260502040119 | 7 | 63 | 3.2 | 3.2 | 0.00 | 0.00 | 0.00 | 71 | 1019.1 |
| 20260502035614 | 7 | 212 | 3.2 | 3.2 | 0.00 | 0.00 | 0.00 | 70 | 1019.1 |
| 20260502035112 | 7 | 10 | 3.2 | 3.2 | 0.00 | 0.00 | 0.00 | 69 | 1018.7 |
| 20260502034609 | 7 | 23 | 1.6 | 1.6 | 0.00 | 0.00 | 0.00 | 71 | 1018.8 |
| 20260502034108 | 7 | 59 | 1.6 | 1.6 | 0.00 | 0.00 | 0.00 | 71 | 1018.7 |
| 20260502033605 | 7 | 54 | 3.2 | 3.2 | 0.00 | 0.00 | 0.00 | 72 | 1018.8 |
| 20260502033103 | 7 | 88 | 1.6 | 1.6 | 0.00 | 0.00 | 0.00 | 73 | 1018.7 |
| 20260502032558 | 8 | 54 | 4.8 | 6.4 | 0.00 | 0.00 | 0.00 | 73 | 1018.8 |
| 20260502032055 | 8 | 33 | 4.8 | 4.8 | 0.00 | 0.00 | 0.00 | 74 | 1018.8 |
| 20260502031553 | 8 | 326 | 3.2 | 3.2 | 0.00 | 0.00 | 0.00 | 75 | 1018.8 |
| 20260502031050 | 8 | 0 | 3.2 | 3.2 | 0.00 | 0.00 | 0.00 | 75 | 1018.8 |
| 20260502030549 | 8 | 323 | 1.6 | 3.2 | 0.00 | 0.00 | 0.00 | 74 | 1018.8 |
| 20260502030046 | 8 | 204 | 3.2 | 3.2 | 0.00 | 0.00 | 0.00 | 74 | 1018.8 |
| 20260502025543 | 8 | 115 | 3.2 | 4.8 | 0.00 | 0.00 | 0.00 | 74 | 1018.7 |
| 20260502025042 | 8 | 278 | 8.0 | 11.3 | 0.00 | 0.00 | 0.00 | 73 | 1018.8 |
| 20260502024538 | 8 | 0 | 1.6 | 1.6 | 0.00 | 0.00 | 0.00 | 74 | 1018.6 |
| 20260502024037 | 8 | 82 | 0.0 | 0.0 | 0.00 | 0.00 | 0.00 | 73 | 1018.6 |
| 20260502023534 | 8 | 316 | 3.2 | 4.8 | 0.00 | 0.00 | 0.00 | 72 | 1018.5 |
| 20260502023031 | 8 | 61 | 0.0 | 0.0 | 0.00 | 0.00 | 0.00 | 72 | 1018.4 |
| 20260502022528 | 8 | 52 | 1.6 | 1.6 | 0.00 | 0.00 | 0.00 | 72 | 1018.3 |
| 20260502022026 | 8 | 65 | 1.6 | 1.6 | 0.00 | 0.00 | 0.00 | 71 | 1018.4 |
| 20260502021523 | 8 | 62 | 0.0 | 0.0 | 0.00 | 0.00 | 0.00 | 72 | 1018.4 |
| 20260502021019 | 8 | 73 | 0.0 | 0.0 | 0.00 | 0.00 | 0.00 | 71 | 1018.3 |
| 20260502020517 | 8 | 63 | 0.0 | 0.0 | 0.00 | 0.00 | 0.00 | 70 | 1018.3 |
| 20260502020014 | 8 | 49 | 1.6 | 1.6 | 0.00 | 0.00 | 0.00 | 70 | 1018.2 |
| 20260502015512 | 8 | 104 | 1.6 | 1.6 | 0.00 | 0.00 | 0.00 | 70 | 1018.0 |
| 20260502015008 | 8 | 138 | 1.6 | 1.6 | 0.00 | 0.00 | 0.00 | 69 | 1018.0 |
| 20260502014505 | 8 | 68 | 0.0 | 0.0 | 0.00 | 0.00 | 0.00 | 69 | 1017.8 |
| 20260502014001 | 8 | 54 | 1.6 | 1.6 | 0.00 | 0.00 | 0.00 | 69 | 1017.8 |
| 20260502013457 | 8 | 60 | 0.0 | 0.0 | 0.00 | 0.00 | 0.00 | 68 | 1017.6 |
| 20260502012954 | 8 | 65 | 0.0 | 0.0 | 0.00 | 0.00 | 0.00 | 67 | 1017.7 |
| 20260502012451 | 8 | 93 | 1.6 | 3.2 | 0.00 | 0.00 | 0.00 | 68 | 1017.6 |
| 20260502011949 | 8 | 49 | 3.2 | 4.8 | 0.00 | 0.00 | 0.00 | 68 | 1017.5 |
| 20260502011444 | 8 | 91 | 1.6 | 1.6 | 0.00 | 0.00 | 0.00 | 70 | 1017.5 |
| 20260502010942 | 8 | 255 | 3.2 | 3.2 | 0.00 | 0.00 | 0.00 | 68 | 1017.6 |
| 20260502010438 | 8 | 24 | 1.6 | 3.2 | 0.00 | 0.00 | 0.00 | 68 | 1017.3 |
| 20260502005935 | 8 | 25 | 3.2 | 3.2 | 0.00 | 0.00 | 0.00 | 68 | 1017.4 |
| 20260502005433 | 9 | 68 | 1.6 | 1.6 | 0.00 | 0.00 | 0.00 | 68 | 1017.3 |
| 20260502004931 | 9 | 49 | 3.2 | 3.2 | 0.00 | 0.00 | 0.00 | 67 | 1017.2 |
| 20260502004426 | 9 | 108 | 0.0 | 0.0 | 0.00 | 0.00 | 0.00 | 67 | 1017.1 |
| 20260502003924 | 9 | 24 | 0.0 | 1.6 | 0.00 | 0.00 | 0.00 | 67 | 1017.1 |
| 20260502003421 | 10 | 106 | 1.6 | 3.2 | 0.00 | 0.00 | 0.00 | 67 | 1016.9 |
| 20260502002917 | 10 | 67 | 6.4 | 11.3 | 0.00 | 0.00 | 0.00 | 67 | 1016.8 |
| 20260502002415 | 10 | 79 | 0.0 | 0.0 | 0.00 | 0.00 | 0.00 | 67 | 1016.7 |
| 20260502001912 | 10 | 15 | 1.6 | 1.6 | 0.00 | 0.00 | 0.00 | 68 | 1016.8 |
| 20260502001409 | 10 | 21 | 3.2 | 3.2 | 0.00 | 0.00 | 0.00 | 67 | 1016.6 |
| 20260502000907 | 10 | 65 | 3.2 | 4.8 | 0.00 | 0.00 | 0.00 | 66 | 1016.1 |
| 20260502000405 | 10 | 46 | 3.2 | 3.2 | 0.00 | 0.00 | 0.00 | 68 | 1016.1 |
| 20260501235900 | 10 | 58 | 0.0 | 0.0 | 0.00 | 0.00 | 0.00 | 69 | 1016.3 |
| 20260501235356 | 10 | 17 | 4.8 | 4.8 | 0.00 | 0.00 | 0.00 | 68 | 1016.0 |
| 20260501234852 | 10 | 59 | 1.6 | 1.6 | 0.00 | 0.00 | 0.00 | 68 | 1015.7 |
| 20260501234349 | 10 | 51 | 0.0 | 0.0 | 0.00 | 0.00 | 0.00 | 68 | 1015.8 |
| 20260501233847 | 11 | 352 | 8.0 | 9.7 | 0.00 | 0.00 | 0.00 | 68 | 1015.3 |
| 20260501233344 | 11 | 306 | 3.2 | 4.8 | 0.00 | 0.00 | 0.00 | 68 | 1015.5 |
| 20260501232840 | 11 | 349 | 6.4 | 6.4 | 0.00 | 0.00 | 0.00 | 67 | 1015.3 |
| 20260501232337 | 11 | 243 | 3.2 | 3.2 | 0.00 | 0.00 | 0.00 | 68 | 1015.3 |
| 20260501231835 | 11 | 56 | 1.6 | 1.6 | 0.00 | 0.00 | 0.00 | 66 | 1015.3 |
| 20260501231332 | 11 | 89 | 3.2 | 3.2 | 0.00 | 0.00 | 0.00 | 67 | 1015.3 |
| 20260501230831 | 11 | 276 | 4.8 | 4.8 | 0.00 | 0.00 | 0.00 | 66 | 1015.3 |
| 20260501230330 | 11 | 140 | 1.6 | 3.2 | 0.00 | 0.00 | 0.00 | 66 | 1015.4 |
| 20260501225826 | 11 | 263 | 1.6 | 3.2 | 0.00 | 0.00 | 0.00 | 65 | 1015.5 |
| 20260501225324 | 11 | 172 | 3.2 | 3.2 | 0.00 | 0.00 | 0.00 | 64 | 1015.1 |
| 20260501224820 | 12 | 308 | 4.8 | 6.4 | 0.00 | 0.00 | 0.00 | 63 | 1015.3 |
| 20260501224318 | 12 | 67 | 0.0 | 0.0 | 0.00 | 0.00 | 0.00 | 62 | 1015.3 |
| 20260501223814 | 12 | 286 | 6.4 | 6.4 | 0.00 | 0.00 | 0.00 | 61 | 1015.4 |
| 20260501223310 | 12 | 289 | 6.4 | 6.4 | 0.00 | 0.00 | 0.00 | 61 | 1015.2 |
| 20260501222806 | 12 | 344 | 6.4 | 6.4 | 0.00 | 0.00 | 0.00 | 60 | 1015.1 |
| 20260501222305 | 12 | 315 | 6.4 | 11.3 | 0.00 | 0.00 | 0.00 | 60 | 1015.0 |
| 20260501221800 | 12 | 49 | 3.2 | 3.2 | 0.00 | 0.00 | 0.00 | 62 | 1014.7 |
| 20260501221257 | 12 | 92 | 4.8 | 4.8 | 0.00 | 0.00 | 0.00 | 57 | 1014.6 |
| 20260501220755 | 13 | 272 | 6.4 | 6.4 | 0.00 | 0.00 | 0.00 | 55 | 1014.9 |
| 20260501220252 | 13 | 244 | 6.4 | 12.9 | 0.00 | 0.00 | 0.00 | 53 | 1014.6 |
| 20260501215749 | 14 | 7 | 3.2 | 3.2 | 0.00 | 0.00 | 0.00 | 53 | 1014.6 |
| 20260501215244 | 15 | 4 | 3.2 | 3.2 | 0.00 | 0.00 | 0.00 | 51 | 1014.5 |
| 20260501214739 | 15 | 262 | 4.8 | 4.8 | 0.00 | 0.00 | 0.00 | 45 | 1014.4 |
| 20260501214236 | 15 | 298 | 4.8 | 4.8 | 0.00 | 0.00 | 0.00 | 39 | 1014.4 |
| 20260501213732 | 15 | 289 | 3.2 | 4.8 | 0.00 | 0.00 | 0.00 | 39 | 1014.3 |
| 20260501213229 | 15 | 283 | 14.5 | 16.1 | 0.00 | 0.00 | 0.00 | 37 | 1014.2 |
| 20260501212725 | 16 | 4 | 6.4 | 9.7 | 0.00 | 0.00 | 0.00 | 38 | 1014.0 |
| 20260501212221 | 16 | 314 | 4.8 | 4.8 | 0.00 | 0.00 | 0.00 | 36 | 1013.9 |
| 20260501211718 | 16 | 273 | 8.0 | 11.3 | 0.00 | 0.00 | 0.00 | 36 | 1013.9 |
| 20260501211216 | 17 | 285 | 8.0 | 11.3 | 0.00 | 0.00 | 0.00 | 34 | 1014.1 |
| 20260501210713 | 17 | 279 | 14.5 | 14.5 | 0.00 | 0.00 | 0.00 | 34 | 1013.8 |
| 20260501210209 | 17 | 211 | 12.9 | 16.1 | 0.00 | 0.00 | 0.00 | 33 | 1013.8 |
| 20260501205706 | 16 | 117 | 1.6 | 3.2 | 0.00 | 0.00 | 0.00 | 35 | 1014.1 |
| 20260501205203 | 16 | 285 | 8.0 | 11.3 | 0.00 | 0.00 | 0.00 | 33 | 1014.0 |
| 20260501204700 | 17 | 289 | 17.7 | 24.1 | 0.00 | 0.00 | 0.00 | 32 | 1014.0 |
| 20260501204155 | 17 | 286 | 6.4 | 12.9 | 0.00 | 0.00 | 0.00 | 33 | 1014.0 |
| 20260501203652 | 17 | 272 | 6.4 | 6.4 | 0.00 | 0.00 | 0.00 | 33 | 1014.1 |
| 20260501203150 | 17 | 242 | 14.5 | 17.7 | 0.00 | 0.00 | 0.00 | 31 | 1013.9 |
| 20260501202647 | 18 | 243 | 11.3 | 17.7 | 0.00 | 0.00 | 0.00 | 32 | 1014.1 |
| 20260501202144 | 17 | 271 | 11.3 | 12.9 | 0.00 | 0.00 | 0.00 | 31 | 1014.0 |
| 20260501201641 | 18 | 277 | 6.4 | 6.4 | 0.00 | 0.00 | 0.00 | 31 | 1014.0 |
| 20260501201137 | 18 | 172 | 3.2 | 6.4 | 0.00 | 0.00 | 0.00 | 34 | 1014.0 |
| 20260501200634 | 18 | 275 | 9.7 | 11.3 | 0.00 | 0.00 | 0.00 | 29 | 1013.8 |
| 20260501200132 | 18 | 303 | 16.1 | 17.7 | 0.00 | 0.00 | 0.00 | 28 | 1013.9 |
| 20260501195629 | 17 | 47 | 1.6 | 1.6 | 0.00 | 0.00 | 0.00 | 33 | 1014.0 |
| 20260501195124 | 17 | 96 | 1.6 | 1.6 | 0.00 | 0.00 | 0.00 | 32 | 1014.0 |
| 20260501194620 | 17 | 255 | 4.8 | 6.4 | 0.00 | 0.00 | 0.00 | 27 | 1014.1 |
| 20260501194116 | 18 | 286 | 6.4 | 11.3 | 0.00 | 0.00 | 0.00 | 30 | 1013.9 |
| 20260501193614 | 17 | 216 | 8.0 | 12.9 | 0.00 | 0.00 | 0.00 | 29 | 1013.9 |
| 20260501193112 | 17 | 290 | 8.0 | 9.7 | 0.00 | 0.00 | 0.00 | 28 | 1014.2 |
| 20260501192608 | 18 | 299 | 9.7 | 12.9 | 0.00 | 0.00 | 0.00 | 28 | 1014.2 |
| 20260501192106 | 18 | 270 | 6.4 | 6.4 | 0.00 | 0.00 | 0.00 | 27 | 1014.3 |
| 20260501191603 | 17 | 302 | 3.2 | 3.2 | 0.00 | 0.00 | 0.00 | 26 | 1014.3 |
| 20260501191100 | 18 | 307 | 6.4 | 11.3 | 0.00 | 0.00 | 0.00 | 25 | 1014.3 |
| 20260501190556 | 18 | 283 | 9.7 | 11.3 | 0.00 | 0.00 | 0.00 | 27 | 1014.4 |
| 20260501190051 | 18 | 4 | 4.8 | 6.4 | 0.00 | 0.00 | 0.00 | 28 | 1014.5 |
| 20260501185548 | 18 | 284 | 9.7 | 16.1 | 0.00 | 0.00 | 0.00 | 26 | 1014.6 |
| 20260501185044 | 18 | 174 | 4.8 | 6.4 | 0.00 | 0.00 | 0.00 | 26 | 1014.3 |
| 20260501184540 | 19 | 118 | 3.2 | 4.8 | 0.00 | 0.00 | 0.00 | 28 | 1014.5 |
| 20260501184040 | 18 | 122 | 3.2 | 3.2 | 0.00 | 0.00 | 0.00 | 29 | 1014.5 |